[[{"header":{"parameterUnit":"m.s-1","parameterCategory":1,"la1":30.2992,"la2":30.254,"lo1":-89.0895,"lo2":-89.0443,"dy":0.0025,"dx":0.0025,"nx":19,"ny":19,"refTime":"2026-04-20T03:00:00:Z","depth":0,"parameterNumber":2,"parameterNumberName":"U-component_of_WINDS"},"data":[0,0,0,-3.1222,-3.1225,-3.1347,-3.1348,-3.1514,-3.1516,0,0,0,0,0,0,0,0,0,0,0,-3.1193,-3.1194,-3.1222,-3.1225,-3.1347,-3.1348,-3.1514,-3.1516,0,0,0,0,0,0,0,0,0,0,0,-3.1192,-3.1194,-3.1196,-3.1226,-3.1347,-3.1348,-3.1513,-3.1417,0,0,0,0,0,0,0,0,0,0,-3.1297,-3.1277,-3.1194,-3.1196,-3.1226,-3.1347,-3.1348,-3.1413,-3.1423,-3.1463,0,-3.1501,0,-3.1511,-3.1527,-3.1528,0,0,0,-3.122,-3.1268,-3.1295,-3.1196,-3.1228,-3.1347,-3.1291,-3.1418,-3.1431,-3.1478,-3.1504,-3.151,-3.1514,-3.1529,-3.1529,-3.1779,-3.178,0,0,-3.1213,-3.1219,-3.1287,-3.1303,-3.1286,-3.1287,-3.1294,-3.1426,-3.1454,-3.1504,-3.1513,-3.1517,-3.153,-3.1531,-3.1777,-3.1779,0,0,0,-3.1197,-3.1214,-3.1237,-3.1297,-3.1318,-3.129,-3.1299,-3.1448,-3.1455,-3.1515,-3.1519,-3.1531,-3.1533,-3.1776,-3.1778,-3.1853,0,0,0,-3.1193,-3.1205,-3.1235,-3.124,-3.1316,-3.1385,-3.1319,-3.1446,-3.1461,-3.1518,-3.1531,-3.1535,-3.1774,-3.1777,-3.1848,-3.1888,0,0,0,-3.1183,-3.1204,-3.1224,-3.124,-3.1292,-3.1383,-3.1397,-3.1449,-3.1464,-3.1528,-3.1535,-3.1773,-3.1776,-3.1843,-3.188,-3.1954,0,0,0,-3.1173,-3.129,-3.1225,-3.1357,-3.1291,-3.1429,-3.1396,-3.1498,-3.1562,-3.1532,-3.1774,-3.1778,-3.1841,-3.1875,-3.1949,-3.2018,-3.2047,0,0,-3.1324,-3.1308,-3.1385,-3.1331,-3.1481,-3.1409,-3.157,-3.1624,-3.1625,-3.1727,-3.1733,-3.1849,-3.1879,-3.1953,-3.221,-3.2233,0,0,0,-3.1434,-3.149,-3.1528,-3.159,-3.1633,-3.1673,-3.1702,-3.1721,-3.1808,-3.1679,-3.1897,-3.1914,-3.1957,-3.199,-3.201,-3.2046,-3.1793,-3.1793,-3.1792,-3.1656,-3.165,-3.1776,-3.1785,-3.1845,-3.1872,-3.192,-3.1951,-3.1928,-3.1979,-3.201,-3.2166,-3.2205,-3.2219,-3.2257,-3.2046,-3.2046,-3.2046,-3.2047,-3.1874,-3.1951,-3.1917,-3.2027,-3.202,-3.2112,-3.2142,-3.2123,-3.2207,-3.2143,-3.2181,-3.2111,-3.2245,-3.2278,-3.2052,-3.2051,-3.205,-3.205,-3.205,-3.2018,-3.2054,-3.2076,-3.2163,-3.2231,-3.2235,-3.2317,-3.2308,-3.23,-3.2337,-3.2367,-3.2366,-3.2363,-3.2352,-3.2353,-3.2353,-3.2354,-3.2354,-3.2355,-3.2159,-3.2181,-3.2251,-3.2306,-3.2344,-3.2392,-3.2419,-3.2456,-3.2494,-3.248,-3.248,-3.2452,-3.226,-3.2211,-3.2363,-3.2361,-3.236,-3.236,-3.2359,-3.2383,-3.233,-3.2439,-3.2477,-3.254,-3.2607,-3.2593,-3.2668,-3.2697,-3.2737,-3.2701,-3.256,-3.2544,-3.2528,-3.2487,-3.2702,-3.2702,-3.2702,-3.2702,-3.2504,-3.2495,-3.2603,-3.2663,-3.2721,-3.272,-3.2842,-3.2864,-3.2878,-3.2895,-3.2863,-3.2809,-3.2793,-3.2786,-3.2764,-3.2727,-3.2997,-3.2997,-3.2998,-3.2641,-3.2637,-3.2743,-3.2756,-3.2804,-3.2845,-3.2959,-3.3029,-3.3034,-3.3009,-3.2908,-3.2896,-3.2808,-3.278,-3.2754,-3.2721,-3.2651,0,0]},{"header":{"parameterUnit":"m.s-1","parameterCategory":1,"la1":30.2992,"la2":30.254,"lo1":-89.0895,"lo2":-89.0443,"dy":0.0025,"dx":0.0025,"nx":19,"ny":19,"refTime":"2026-04-20T03:00:00:Z","depth":0,"parameterNumber":3,"parameterNumberName":"V-component_of_WINDS"},"data":[0,0,0,2.7597,2.7599,2.7696,2.7696,2.7825,2.7826,0,0,0,0,0,0,0,0,0,0,0,2.7573,2.7574,2.7596,2.7599,2.7696,2.7696,2.7824,2.7826,0,0,0,0,0,0,0,0,0,0,0,2.7572,2.7574,2.7575,2.7599,2.7696,2.7696,2.7824,2.7749,0,0,0,0,0,0,0,0,0,0,2.7654,2.7637,2.7573,2.7575,2.76,2.7696,2.7696,2.7745,2.7754,2.7784,0,2.7813,0,2.7822,2.7835,2.7835,0,0,0,2.7595,2.763,2.7652,2.7575,2.7601,2.7695,2.7651,2.775,2.7759,2.7795,2.7815,2.782,2.7824,2.7836,2.7836,2.8028,2.8029,0,0,2.7589,2.7593,2.7646,2.7659,2.7647,2.7648,2.7654,2.7755,2.7777,2.7816,2.7823,2.7826,2.7837,2.7838,2.8027,2.8028,0,0,0,2.7577,2.7589,2.7608,2.7654,2.7671,2.7651,2.7658,2.7772,2.7779,2.7824,2.7828,2.7838,2.7839,2.8026,2.8028,2.8085,0,0,0,2.7574,2.7582,2.7606,2.7609,2.7669,2.7723,2.7673,2.7772,2.7783,2.7827,2.7838,2.7841,2.8025,2.8027,2.8081,2.8111,0,0,0,2.7565,2.7581,2.7597,2.7609,2.7651,2.7722,2.7733,2.7774,2.7786,2.7836,2.7841,2.8024,2.8026,2.8077,2.8105,2.8162,0,0,0,2.7556,2.7646,2.7598,2.7699,2.765,2.7757,2.7733,2.7812,2.7862,2.7838,2.8025,2.8027,2.8076,2.8101,2.8158,2.8209,2.8232,0,0,2.7671,2.766,2.7719,2.7679,2.7796,2.7742,2.7867,2.7909,2.791,2.7988,2.7993,2.8082,2.8104,2.8161,2.8358,2.8375,0,0,0,2.7756,2.7799,2.7829,2.7878,2.7913,2.7945,2.7968,2.7983,2.805,2.7951,2.8119,2.8132,2.8165,2.8189,2.8204,2.8232,2.8039,2.8039,2.8039,2.7922,2.792,2.8018,2.8027,2.8075,2.8098,2.8135,2.8159,2.8143,2.8182,2.8205,2.8325,2.8354,2.8365,2.8394,2.8233,2.8233,2.8234,2.8234,2.8089,2.8148,2.8125,2.8211,2.8208,2.828,2.8305,2.8291,2.8356,2.8307,2.8336,2.8282,2.8385,2.8409,2.8238,2.8237,2.8237,2.8236,2.8236,2.8196,2.8224,2.8243,2.8313,2.8366,2.8373,2.8437,2.8431,2.8426,2.8455,2.8478,2.8477,2.8474,2.8467,2.8467,2.8467,2.8468,2.8468,2.8468,2.8299,2.8319,2.8374,2.842,2.845,2.8489,2.8513,2.8542,2.8573,2.8563,2.8564,2.8542,2.8396,2.8358,2.8475,2.8474,2.8473,2.8472,2.8472,2.8467,2.8428,2.8514,2.8545,2.8597,2.8651,2.8644,2.8703,2.8726,2.8758,2.8731,2.8624,2.8611,2.8599,2.8568,2.8732,2.8732,2.8732,2.8732,2.8556,2.855,2.8637,2.8686,2.8733,2.8736,2.8831,2.885,2.8864,2.8878,2.8854,2.8812,2.8801,2.8795,2.8779,2.8749,2.8955,2.8956,2.8956,2.8659,2.8657,2.874,2.8755,2.8795,2.883,2.8919,2.8975,2.8982,2.8965,2.8888,2.8879,2.8812,2.8791,2.877,2.8745,2.8691,0,0]}]]